Lille, France

6:11 AM CET on February 25, 2017 (GMT +0100)
Lesquin

Weather History for LFQQ - October, 2013

Change the Weather History Date:

Sunday, October 6, 2013

  Actual Average Record
Temperature  
Mean Temperature 60 °F -  
Max Temperature 68 °F 56 °F 75 °F (1997)
Min Temperature 52 °F 44 °F 40 °F (2016)
Degree Days  
Heating Degree Days 5    
Growing Degree Days 10 (Base 50)    
Moisture  
Dew Point 52 °F    
Average Humidity 80    
Maximum Humidity 100    
Minimum Humidity 49    
Precipitation  
Precipitation 0.00 in - - ()
Sea Level Pressure  
Sea Level Pressure 30.27 in    
Wind  
Wind Speed 2 mph ()    
Max Wind Speed 7 mph    
Max Gust Speed -    
Visibility 5.3 miles    
Events Fog    
Averages and records for this station are not official NWS values.
T = Trace of Precipitation, MM = Missing Value Source: Averaged Metar Reports

Daily Weather History Graph

Daily Weather History Graph

Search for Another Location

Airport or City:

Trip Planner

Search our weather history database for the weather conditions in past years. The results will help you decide how hot, cold, wet, or windy it might be!

Date:

Astronomy

Oct. 06, 2013 Rise Set
Actual Time 7:55 AM CEST 7:14 PM CEST
Civil Twilight 7:23 AM CEST 7:47 PM CEST
Nautical Twilight 6:45 AM CEST 8:25 PM CEST
Astronomical Twilight 6:06 AM CEST 9:03 PM CEST
Moon 9:36 AM CEST (10/6) 7:48 PM CEST (10/6)
Length of Visible Light 12h 24m
Length of Day
11h 18m
New Moon, 2% of the Moon is Illuminated
Oct 6
New Moon
Oct 12
First Quarter
Oct 19
Full
Oct 27
Last Quarter
Nov 3
New

Hourly Weather History & Observations

Time (CEST) Temp. Dew Point Humidity Pressure Visibility Wind Dir Wind Speed Gust Speed Precip Events Conditions
12:00 AM 53.6 °F 51.8 °F 94% 30.24 in 5.6 mi SSW 1.2 mph - N/A   Unknown
12:30 AM 53.6 °F 51.8 °F 94% 30.24 in 4.3 mi South 1.2 mph - N/A   Unknown
1:00 AM 53.6 °F 53.6 °F 100% 30.24 in 4.3 mi SW 2.3 mph - N/A   Unknown
1:30 AM 55.4 °F 53.6 °F 94% 30.24 in 4.3 mi SW 2.3 mph - N/A   Unknown
2:00 AM 55 °F 54 °F 93% 30.25 in 4 mi Calm Calm - -   Mostly Cloudy
2:00 AM 55.4 °F 53.6 °F 94% 30.24 in 4.3 mi Calm Calm - N/A   Unknown
2:30 AM 55.4 °F 53.6 °F 94% 30.24 in 5.0 mi WSW 2.3 mph - N/A   Overcast
3:00 AM 55.4 °F 53.6 °F 94% 30.24 in 5.6 mi WSW 1.2 mph - N/A   Unknown
3:30 AM 55.4 °F 53.6 °F 94% 30.24 in 6.2 mi West 2.3 mph - N/A   Overcast
4:00 AM 55.4 °F 53.6 °F 94% 30.24 in 6.2 mi West 2.3 mph - N/A   Unknown
4:30 AM 55.4 °F 53.6 °F 94% 30.24 in 6.2 mi West 2.3 mph - N/A   Overcast
5:00 AM 55.4 °F 53.6 °F 94% 30.24 in 5.0 mi West 1.2 mph - N/A   Unknown
5:30 AM 55.4 °F 53.6 °F 94% 30.24 in 5.0 mi West 2.3 mph - N/A   Unknown
6:00 AM 55.4 °F 53.6 °F 94% 30.24 in 3.7 mi WSW 2.3 mph - N/A   Unknown
6:30 AM 55.4 °F 55.4 °F 100% 30.24 in 5.0 mi SW 2.3 mph - N/A   Unknown
7:00 AM 55.4 °F 53.6 °F 94% 30.27 in 3.7 mi West 2.3 mph - N/A   Unknown
7:30 AM 55.4 °F 53.6 °F 94% 30.27 in 1.9 mi West 2.3 mph - N/A Fog Shallow Fog
8:00 AM 55 °F 54 °F 95% 30.29 in 2 mi West 3.5 mph - - Fog Patches of Fog
8:00 AM 55.4 °F 53.6 °F 94% 30.27 in 2.5 mi West 3.5 mph - N/A Fog Fog
8:06 AM 55.4 °F 53.6 °F 94% 30.27 in 2.5 mi West 4.6 mph - N/A Fog Fog
8:30 AM 55.4 °F 53.6 °F 94% 30.27 in - WSW 2.3 mph - N/A   Scattered Clouds
9:00 AM 55.4 °F 53.6 °F 94% 30.27 in 1.7 mi WSW 1.2 mph - N/A   Mist
9:30 AM 57.2 °F 55.4 °F 94% 30.27 in 2.5 mi Variable 2.3 mph - N/A   Mist
10:00 AM 57.2 °F 57.2 °F 100% 30.27 in - Variable 1.2 mph - N/A   Scattered Clouds
10:30 AM 59.0 °F 57.2 °F 94% 30.30 in 5.0 mi Variable 2.3 mph - N/A   Unknown
11:00 AM 60.8 °F 57.2 °F 88% 30.30 in 4.3 mi Variable 2.3 mph - N/A   Mostly Cloudy
11:30 AM 62.6 °F 57.2 °F 82% 30.30 in 5.0 mi Variable 2.3 mph - N/A   Scattered Clouds
12:00 PM 64.4 °F 53.6 °F 68% 30.30 in 6.2 mi Variable 2.3 mph - N/A   Scattered Clouds
12:30 PM 66.2 °F 53.6 °F 64% 30.30 in 6.2 mi Variable 3.5 mph - N/A   Scattered Clouds
1:05 PM 66.2 °F 51.8 °F 60% 30.30 in 6.2 mi Calm Calm - N/A   Scattered Clouds
1:30 PM 64.4 °F 51.8 °F 64% 30.30 in 6.2 mi NE 4.6 mph - N/A   Scattered Clouds
2:00 PM 65 °F 51 °F 50% 30.30 in 22 mi North 2.3 mph - -   Partly Cloudy
2:00 PM 64.4 °F 51.8 °F 64% 30.30 in 6.2 mi Variable 2.3 mph - N/A   Scattered Clouds
2:30 PM 64.4 °F 48.2 °F 56% 30.27 in 6.2 mi Variable 2.3 mph - N/A   Scattered Clouds
3:00 PM 68.0 °F 50.0 °F 52% 30.27 in 6.2 mi Variable 2.3 mph - N/A   Scattered Clouds
3:30 PM 68.0 °F 48.2 °F 49% 30.27 in 6.2 mi WNW 4.6 mph - N/A   Scattered Clouds
4:00 PM 66.2 °F 48.2 °F 52% 30.27 in 6.2 mi West 4.6 mph - N/A   Mostly Cloudy
4:30 PM 66.2 °F 50.0 °F 56% 30.27 in 6.2 mi West 5.8 mph - N/A   Scattered Clouds
5:00 PM 66.2 °F 50.0 °F 56% 30.27 in 6.2 mi SW 4.6 mph - N/A   Scattered Clouds
5:30 PM 64.4 °F 51.8 °F 64% 30.27 in 6.2 mi North 4.6 mph - N/A   Scattered Clouds
6:00 PM 64.4 °F 51.8 °F 64% 30.27 in 6.2 mi NE 2.3 mph - N/A   Scattered Clouds
6:30 PM 64.4 °F 51.8 °F 64% 30.27 in - Variable 1.2 mph - N/A   Clear
7:00 PM 62.6 °F 51.8 °F 68% 30.27 in 6.2 mi Calm Calm - N/A   Scattered Clouds
7:30 PM 60.8 °F 51.8 °F 72% 30.30 in 6.2 mi East 2.3 mph - N/A   Scattered Clouds
8:00 PM 60 °F 52 °F 67% 30.31 in 12 mi East 2.3 mph - -   Mostly Cloudy
8:00 PM 60.8 °F 51.8 °F 72% 30.30 in 6.2 mi East 2.3 mph - N/A   Mostly Cloudy
8:30 PM 60.8 °F 53.6 °F 77% 30.30 in 6.2 mi Variable 2.3 mph - N/A   Mostly Cloudy
9:00 PM 60.8 °F 50.0 °F 68% 30.30 in - NE 4.6 mph - N/A   Clear
9:30 PM 59.0 °F 50.0 °F 72% 30.30 in - ENE 6.9 mph - N/A   Clear
10:00 PM 59.0 °F 50.0 °F 72% 30.30 in - NE 2.3 mph - N/A   Clear
10:30 PM 57.2 °F 48.2 °F 72% 30.30 in 6.2 mi East 2.3 mph - N/A   Scattered Clouds
11:00 PM 55.4 °F 48.2 °F 77% 30.30 in 6.2 mi Calm Calm - N/A   Scattered Clouds
11:30 PM 55.4 °F 48.2 °F 77% 30.30 in 6.2 mi ESE 1.2 mph - N/A   Scattered Clouds